Year,Month,Day,Hour,Minute,Value (Times are PST for temperature in C)
2007,07,23,00,00,16.50
2007,07,23,00,01,16.60
2007,07,23,00,02,16.60
2007,07,23,00,03,16.70
2007,07,23,00,04,16.70
2007,07,23,00,05,16.70
2007,07,23,00,06,16.70
2007,07,23,00,07,16.80
2007,07,23,00,08,16.80
2007,07,23,00,09,16.80
2007,07,23,00,10,16.80
2007,07,23,00,11,16.80
2007,07,23,00,12,16.80
2007,07,23,00,13,16.80
2007,07,23,00,14,16.90
2007,07,23,00,15,16.90
2007,07,23,00,16,17.00
2007,07,23,00,17,17.00
2007,07,23,00,18,17.00
2007,07,23,00,19,17.00
2007,07,23,00,20,17.00
2007,07,23,00,21,16.90
2007,07,23,00,22,16.90
2007,07,23,00,23,16.90
2007,07,23,00,24,16.90
2007,07,23,00,25,16.90
2007,07,23,00,26,16.90
2007,07,23,00,27,16.90
2007,07,23,00,28,16.90
2007,07,23,00,29,16.90
2007,07,23,00,30,16.80
2007,07,23,00,31,16.80
2007,07,23,00,32,16.70
2007,07,23,00,33,16.70
2007,07,23,00,34,16.70
2007,07,23,00,35,16.70
2007,07,23,00,36,16.80
2007,07,23,00,37,16.90
2007,07,23,00,38,16.90
2007,07,23,00,39,17.00
2007,07,23,00,40,17.00
2007,07,23,00,41,17.00
2007,07,23,00,42,16.90
2007,07,23,00,43,16.90
2007,07,23,00,44,16.90
2007,07,23,00,45,16.90
2007,07,23,00,46,16.90
2007,07,23,00,47,16.80
2007,07,23,00,48,16.90
2007,07,23,00,49,16.90
2007,07,23,00,50,16.90
2007,07,23,00,51,17.00
2007,07,23,00,52,17.00
2007,07,23,00,53,17.00
2007,07,23,00,54,17.10
2007,07,23,00,55,17.20
2007,07,23,00,56,17.20
2007,07,23,00,57,17.20
2007,07,23,00,58,17.20
2007,07,23,00,59,17.20
2007,07,23,01,00,17.20
2007,07,23,01,01,17.20
2007,07,23,01,02,17.20
2007,07,23,01,03,17.20
2007,07,23,01,04,17.20
2007,07,23,01,05,17.20
2007,07,23,01,06,17.20
2007,07,23,01,07,17.20
2007,07,23,01,08,17.20
2007,07,23,01,09,17.20
2007,07,23,01,10,17.20
2007,07,23,01,11,17.20
2007,07,23,01,12,17.20
2007,07,23,01,13,17.10
2007,07,23,01,14,17.10
2007,07,23,01,15,17.10
2007,07,23,01,16,17.10
2007,07,23,01,17,17.10
2007,07,23,01,18,17.10
2007,07,23,01,19,17.10
2007,07,23,01,20,17.10
2007,07,23,01,21,17.20
2007,07,23,01,22,17.20
2007,07,23,01,23,17.20
2007,07,23,01,24,17.20
2007,07,23,01,25,17.20
2007,07,23,01,26,17.30
2007,07,23,01,27,17.20
2007,07,23,01,28,17.20
2007,07,23,01,29,17.20
2007,07,23,01,30,17.20
2007,07,23,01,31,17.20
2007,07,23,01,32,17.20
2007,07,23,01,33,17.20
2007,07,23,01,34,17.30
2007,07,23,01,35,17.30
2007,07,23,01,36,17.30
2007,07,23,01,37,17.30
2007,07,23,01,38,17.30
2007,07,23,01,39,17.30
2007,07,23,01,40,17.30
2007,07,23,01,41,17.30
2007,07,23,01,42,17.30
2007,07,23,01,43,17.30
2007,07,23,01,44,17.30
2007,07,23,01,45,17.30
2007,07,23,01,46,17.30
2007,07,23,01,47,17.30
2007,07,23,01,48,17.20
2007,07,23,01,49,17.20
2007,07,23,01,50,17.20
2007,07,23,01,51,17.20
2007,07,23,01,52,17.20
2007,07,23,01,53,17.20
2007,07,23,01,54,17.20
2007,07,23,01,55,17.20
2007,07,23,01,56,17.20
2007,07,23,01,57,17.20
2007,07,23,01,58,17.20
2007,07,23,01,59,17.20
2007,07,23,02,00,17.30
2007,07,23,02,01,17.30
2007,07,23,02,02,17.30
2007,07,23,02,03,17.30
2007,07,23,02,04,17.30
2007,07,23,02,05,17.30
2007,07,23,02,06,17.30
2007,07,23,02,07,17.30
2007,07,23,02,08,17.30
2007,07,23,02,09,17.20
2007,07,23,02,10,17.20
2007,07,23,02,11,17.10
2007,07,23,02,12,17.10
2007,07,23,02,13,17.10
2007,07,23,02,14,17.10
2007,07,23,02,15,17.20
2007,07,23,02,16,17.20
2007,07,23,02,17,17.30
2007,07,23,02,18,17.30
2007,07,23,02,19,17.30
2007,07,23,02,20,17.40
2007,07,23,02,21,17.40
2007,07,23,02,22,17.40
2007,07,23,02,23,17.40
2007,07,23,02,24,17.40
2007,07,23,02,25,17.40
2007,07,23,02,26,17.30
2007,07,23,02,27,17.30
2007,07,23,02,28,17.30
2007,07,23,02,29,17.30
2007,07,23,02,30,17.30
2007,07,23,02,31,17.30
2007,07,23,02,32,17.30
2007,07,23,02,33,17.30
2007,07,23,02,34,17.30
2007,07,23,02,35,17.20
2007,07,23,02,36,17.20
2007,07,23,02,37,17.20
2007,07,23,02,38,17.20
2007,07,23,02,39,17.20
2007,07,23,02,40,17.30
2007,07,23,02,41,17.30
2007,07,23,02,42,17.30
2007,07,23,02,43,17.30
2007,07,23,02,44,17.30
2007,07,23,02,45,17.30
2007,07,23,02,46,17.30
2007,07,23,02,47,17.30
2007,07,23,02,48,17.20
2007,07,23,02,49,17.20
2007,07,23,02,50,17.20
2007,07,23,02,51,17.10
2007,07,23,02,52,17.10
2007,07,23,02,53,17.10
2007,07,23,02,54,17.10
2007,07,23,02,55,17.10
2007,07,23,02,56,17.20
2007,07,23,02,57,17.20
2007,07,23,02,58,17.20
2007,07,23,02,59,17.20
2007,07,23,03,00,17.20
2007,07,23,03,01,17.30
2007,07,23,03,02,17.30
2007,07,23,03,03,17.30
2007,07,23,03,04,17.30
2007,07,23,03,05,17.30
2007,07,23,03,06,17.30
2007,07,23,03,07,17.30
2007,07,23,03,08,17.30
2007,07,23,03,09,17.30
2007,07,23,03,10,17.40
2007,07,23,03,11,17.40
2007,07,23,03,12,17.50
2007,07,23,03,13,17.40
2007,07,23,03,14,17.40
2007,07,23,03,15,17.30
2007,07,23,03,16,17.30
2007,07,23,03,17,17.30
2007,07,23,03,18,17.30
2007,07,23,03,19,17.30
2007,07,23,03,20,17.40
2007,07,23,03,21,17.40
2007,07,23,03,22,17.40
2007,07,23,03,23,17.40
2007,07,23,03,24,17.50
2007,07,23,03,25,17.50
2007,07,23,03,26,17.50
2007,07,23,03,27,17.50
2007,07,23,03,28,17.50
2007,07,23,03,29,17.50
2007,07,23,03,30,17.40
2007,07,23,03,31,17.40
2007,07,23,03,32,17.30
2007,07,23,03,33,17.30
2007,07,23,03,34,17.30
2007,07,23,03,35,17.40
2007,07,23,03,36,17.40
2007,07,23,03,37,17.40
2007,07,23,03,38,17.40
2007,07,23,03,39,17.40
2007,07,23,03,40,17.40
2007,07,23,03,41,17.30
2007,07,23,03,42,17.30
2007,07,23,03,43,17.30
2007,07,23,03,44,17.30
2007,07,23,03,45,17.30
2007,07,23,03,46,17.30
2007,07,23,03,47,17.40
2007,07,23,03,48,17.40
2007,07,23,03,49,17.30
2007,07,23,03,50,17.30
2007,07,23,03,51,17.40
2007,07,23,03,52,17.40
2007,07,23,03,53,17.40
2007,07,23,03,54,17.30
2007,07,23,03,55,17.30
2007,07,23,03,56,17.30
2007,07,23,03,57,17.30
2007,07,23,03,58,17.30
2007,07,23,03,59,17.20
2007,07,23,04,00,17.20
2007,07,23,04,01,17.20
2007,07,23,04,02,17.20
2007,07,23,04,03,17.20
2007,07,23,04,04,17.20
2007,07,23,04,05,17.20
2007,07,23,04,06,17.30
2007,07,23,04,07,17.30
2007,07,23,04,08,17.30
2007,07,23,04,09,17.30
2007,07,23,04,10,17.30
2007,07,23,04,11,17.40
2007,07,23,04,12,17.40
2007,07,23,04,13,17.40
2007,07,23,04,14,17.40
2007,07,23,04,15,17.40
2007,07,23,04,16,17.30
2007,07,23,04,17,17.30
2007,07,23,04,18,17.30
2007,07,23,04,19,17.30
2007,07,23,04,20,17.30
2007,07,23,04,21,17.30
2007,07,23,04,22,17.30
2007,07,23,04,23,17.30
2007,07,23,04,24,17.20
2007,07,23,04,25,17.20
2007,07,23,04,26,17.10
2007,07,23,04,27,17.20
2007,07,23,04,28,17.10
2007,07,23,04,29,17.10
2007,07,23,04,30,17.10
2007,07,23,04,31,17.00
2007,07,23,04,32,17.00
2007,07,23,04,33,17.00
2007,07,23,04,34,16.90
2007,07,23,04,35,16.90
2007,07,23,04,36,16.90
2007,07,23,04,37,16.80
2007,07,23,04,38,16.70
2007,07,23,04,39,16.70
2007,07,23,04,40,16.70
2007,07,23,04,41,16.70
2007,07,23,04,42,16.70
2007,07,23,04,43,16.60
2007,07,23,04,44,16.60
2007,07,23,04,45,16.60
2007,07,23,04,46,16.60
2007,07,23,04,47,16.60
2007,07,23,04,48,16.60
2007,07,23,04,49,16.50
2007,07,23,04,50,16.60
2007,07,23,04,51,16.60
2007,07,23,04,52,16.70
2007,07,23,04,53,16.70
2007,07,23,04,54,16.70
2007,07,23,04,55,16.70
2007,07,23,04,56,16.70
2007,07,23,04,57,16.70
2007,07,23,04,58,16.70
2007,07,23,04,59,16.70
2007,07,23,05,00,16.70
2007,07,23,05,01,16.60
2007,07,23,05,02,16.50
2007,07,23,05,03,16.40
2007,07,23,05,04,16.40
2007,07,23,05,05,16.40
2007,07,23,05,06,16.40
2007,07,23,05,07,16.40
2007,07,23,05,08,16.40
2007,07,23,05,09,16.40
2007,07,23,05,10,16.40
2007,07,23,05,11,16.40
2007,07,23,05,12,16.40
2007,07,23,05,13,16.30
2007,07,23,05,14,16.30
2007,07,23,05,15,16.30
2007,07,23,05,16,16.30
2007,07,23,05,17,16.30
2007,07,23,05,18,16.30
2007,07,23,05,19,16.30
2007,07,23,05,20,16.40
2007,07,23,05,21,16.40
2007,07,23,05,22,16.30
2007,07,23,05,23,16.30
2007,07,23,05,24,16.20
2007,07,23,05,25,16.20
2007,07,23,05,26,16.10
2007,07,23,05,27,16.10
2007,07,23,05,28,16.10
2007,07,23,05,29,16.10
2007,07,23,05,30,16.10
2007,07,23,05,31,16.10
2007,07,23,05,32,16.10
2007,07,23,05,33,16.20
2007,07,23,05,34,16.20
2007,07,23,05,35,16.20
2007,07,23,05,36,16.20
2007,07,23,05,37,16.20
2007,07,23,05,38,16.20
2007,07,23,05,39,16.30
2007,07,23,05,40,16.30
2007,07,23,05,41,16.30
2007,07,23,05,42,16.30
2007,07,23,05,43,16.30
2007,07,23,05,44,16.40
2007,07,23,05,45,16.40
2007,07,23,05,46,16.40
2007,07,23,05,47,16.40
2007,07,23,05,48,16.40
2007,07,23,05,49,16.40
2007,07,23,05,50,16.40
2007,07,23,05,51,16.40
2007,07,23,05,52,16.40
2007,07,23,05,53,16.40
2007,07,23,05,54,16.30
2007,07,23,05,55,16.30
2007,07,23,05,56,16.20
2007,07,23,05,57,16.10
2007,07,23,05,58,16.10
2007,07,23,05,59,16.00
2007,07,23,06,00,15.90
2007,07,23,06,01,15.90
2007,07,23,06,02,15.90
2007,07,23,06,03,15.90
2007,07,23,06,04,15.90
2007,07,23,06,05,15.90
2007,07,23,06,06,15.90
2007,07,23,06,07,15.90
2007,07,23,06,08,15.90
2007,07,23,06,09,15.80
2007,07,23,06,10,15.80
2007,07,23,06,11,15.80
2007,07,23,06,12,15.80
2007,07,23,06,13,15.80
2007,07,23,06,14,15.80
2007,07,23,06,15,15.80
2007,07,23,06,16,15.70
2007,07,23,06,17,15.70
2007,07,23,06,18,15.70
2007,07,23,06,19,15.70
2007,07,23,06,20,15.70
2007,07,23,06,21,15.60
2007,07,23,06,22,15.60
2007,07,23,06,23,15.70
2007,07,23,06,24,15.70
2007,07,23,06,25,15.80
2007,07,23,06,26,15.70
2007,07,23,06,27,15.70
2007,07,23,06,28,15.70
2007,07,23,06,29,15.80
2007,07,23,06,30,15.80
2007,07,23,06,31,15.80
2007,07,23,06,32,15.80
2007,07,23,06,33,15.80
2007,07,23,06,34,15.80
2007,07,23,06,35,15.80
2007,07,23,06,36,15.80
2007,07,23,06,37,15.80
2007,07,23,06,38,15.80
2007,07,23,06,39,15.70
2007,07,23,06,40,15.70
2007,07,23,06,41,15.60
2007,07,23,06,42,15.60
2007,07,23,06,43,15.60
2007,07,23,06,44,15.60
2007,07,23,06,45,15.60
2007,07,23,06,46,15.60
2007,07,23,06,47,15.70
2007,07,23,06,48,15.70
2007,07,23,06,49,15.60
2007,07,23,06,50,15.60
2007,07,23,06,51,15.60
2007,07,23,06,52,15.50
2007,07,23,06,53,15.50
2007,07,23,06,54,15.40
2007,07,23,06,55,15.40
2007,07,23,06,56,15.40
2007,07,23,06,57,15.30
2007,07,23,06,58,15.30
2007,07,23,06,59,15.30
2007,07,23,07,00,15.30
2007,07,23,07,01,15.40
2007,07,23,07,02,15.40
2007,07,23,07,03,15.30
2007,07,23,07,04,15.30
2007,07,23,07,05,15.30
2007,07,23,07,06,15.30
2007,07,23,07,07,15.30
2007,07,23,07,08,15.30
2007,07,23,07,09,15.30
2007,07,23,07,10,15.20
2007,07,23,07,11,15.20
2007,07,23,07,12,15.20
2007,07,23,07,13,15.20
2007,07,23,07,14,15.20
2007,07,23,07,15,15.20
2007,07,23,07,16,15.30
2007,07,23,07,17,15.20
2007,07,23,07,18,15.30
2007,07,23,07,19,15.30
2007,07,23,07,20,15.30
2007,07,23,07,21,15.30
2007,07,23,07,22,15.30
2007,07,23,07,23,15.30
2007,07,23,07,24,15.20
2007,07,23,07,25,15.20
2007,07,23,07,26,15.30
2007,07,23,07,27,15.30
2007,07,23,07,28,15.30
2007,07,23,07,29,15.30
2007,07,23,07,30,15.30
2007,07,23,07,31,15.30
2007,07,23,07,32,15.20
2007,07,23,07,33,15.10
2007,07,23,07,34,15.10
2007,07,23,07,35,15.10
2007,07,23,07,36,15.10
2007,07,23,07,37,15.10
2007,07,23,07,38,15.20
2007,07,23,07,39,15.10
2007,07,23,07,40,15.10
2007,07,23,07,41,15.10
2007,07,23,07,42,15.20
2007,07,23,07,43,15.20
2007,07,23,07,44,15.20
2007,07,23,07,45,15.30
2007,07,23,07,46,15.30
2007,07,23,07,47,15.40
2007,07,23,07,48,15.40
2007,07,23,07,49,15.50
2007,07,23,07,50,15.50
2007,07,23,07,51,15.50
2007,07,23,07,52,15.50
2007,07,23,07,53,15.50
2007,07,23,07,54,15.50
2007,07,23,07,55,15.40
2007,07,23,07,56,15.40
2007,07,23,07,57,15.40
2007,07,23,07,58,15.50
2007,07,23,07,59,15.50
2007,07,23,08,00,15.50
2007,07,23,08,01,15.50
2007,07,23,08,02,15.50
2007,07,23,08,03,15.50
2007,07,23,08,04,15.50
2007,07,23,08,05,15.50
2007,07,23,08,06,15.50
2007,07,23,08,07,15.50
2007,07,23,08,08,15.50
2007,07,23,08,09,15.50
2007,07,23,08,10,15.50
2007,07,23,08,11,15.50
2007,07,23,08,12,15.50
2007,07,23,08,13,15.50
2007,07,23,08,14,15.60
2007,07,23,08,15,15.60
2007,07,23,08,16,15.60
2007,07,23,08,17,15.60
2007,07,23,08,18,15.60
2007,07,23,08,19,15.60
2007,07,23,08,20,15.60
2007,07,23,08,21,15.50
2007,07,23,08,22,15.50
2007,07,23,08,23,15.50
2007,07,23,08,24,15.50
2007,07,23,08,25,15.50
2007,07,23,08,26,15.50
2007,07,23,08,27,15.60
2007,07,23,08,28,15.60
2007,07,23,08,29,15.50
2007,07,23,08,30,15.50
2007,07,23,08,31,15.50
2007,07,23,08,32,15.50
2007,07,23,08,33,15.50
2007,07,23,08,34,15.50
2007,07,23,08,35,15.50
2007,07,23,08,36,15.50
2007,07,23,08,37,15.50
2007,07,23,08,38,15.50
2007,07,23,08,39,15.40
2007,07,23,08,40,15.40
2007,07,23,08,41,15.50
2007,07,23,08,42,15.50
2007,07,23,08,43,15.60
2007,07,23,08,44,15.60
2007,07,23,08,45,15.60
2007,07,23,08,46,15.60
2007,07,23,08,47,15.60
2007,07,23,08,48,15.60
2007,07,23,08,49,15.60
2007,07,23,08,50,15.60
2007,07,23,08,51,15.60
2007,07,23,08,52,15.70
2007,07,23,08,53,15.70
2007,07,23,08,54,15.80
2007,07,23,08,55,15.80
2007,07,23,08,56,15.80
2007,07,23,08,57,15.80
2007,07,23,08,58,15.80
2007,07,23,08,59,15.80
2007,07,23,09,00,15.80
2007,07,23,09,01,15.80
2007,07,23,09,02,15.80
2007,07,23,09,03,15.90
2007,07,23,09,04,15.90
2007,07,23,09,05,15.90
2007,07,23,09,06,15.90
2007,07,23,09,07,16.00
2007,07,23,09,08,16.10
2007,07,23,09,09,16.10
2007,07,23,09,10,16.10
2007,07,23,09,11,16.10
2007,07,23,09,12,16.20
2007,07,23,09,13,16.20
2007,07,23,09,14,16.30
2007,07,23,09,15,16.40
2007,07,23,09,16,16.40
2007,07,23,09,17,16.50
2007,07,23,09,18,16.60
2007,07,23,09,19,16.60
2007,07,23,09,20,16.60
2007,07,23,09,21,16.60
2007,07,23,09,22,16.40
2007,07,23,09,23,16.40
2007,07,23,09,24,16.30
2007,07,23,09,25,16.30
2007,07,23,09,26,16.30
2007,07,23,09,27,16.40
2007,07,23,09,28,16.40
2007,07,23,09,29,16.40
2007,07,23,09,30,16.40
2007,07,23,09,31,16.40
2007,07,23,09,32,16.30
2007,07,23,09,33,16.20
2007,07,23,09,34,16.20
2007,07,23,09,35,16.20
2007,07,23,09,36,16.30
2007,07,23,09,37,16.40
2007,07,23,09,38,16.40
2007,07,23,09,39,16.40
2007,07,23,09,40,16.50
2007,07,23,09,41,16.50
2007,07,23,09,42,16.40
2007,07,23,09,43,16.50
2007,07,23,09,44,16.60
2007,07,23,09,45,16.60
2007,07,23,09,46,16.70
2007,07,23,09,47,16.70
2007,07,23,09,48,16.70
2007,07,23,09,49,16.70
2007,07,23,09,50,16.80
2007,07,23,09,51,16.80
2007,07,23,09,52,16.90
2007,07,23,09,53,16.90
2007,07,23,09,54,16.90
2007,07,23,09,55,17.00
2007,07,23,09,56,17.10
2007,07,23,09,57,17.10
2007,07,23,09,58,17.20
2007,07,23,09,59,17.20
2007,07,23,10,00,17.30
2007,07,23,10,01,17.30
2007,07,23,10,02,17.30
2007,07,23,10,03,17.30
2007,07,23,10,04,17.30
2007,07,23,10,05,17.40
2007,07,23,10,06,17.40
2007,07,23,10,07,17.30
2007,07,23,10,08,17.30
2007,07,23,10,09,17.40
2007,07,23,10,10,17.40
2007,07,23,10,11,17.50
2007,07,23,10,12,17.70
2007,07,23,10,13,17.80
2007,07,23,10,14,17.90
2007,07,23,10,15,17.90
2007,07,23,10,16,17.90
2007,07,23,10,17,18.00
2007,07,23,10,18,18.00
2007,07,23,10,19,18.00
2007,07,23,10,20,18.00
2007,07,23,10,21,17.90
2007,07,23,10,22,17.90
2007,07,23,10,23,17.80
2007,07,23,10,24,17.80
2007,07,23,10,25,17.80
2007,07,23,10,26,17.70
2007,07,23,10,27,17.60
2007,07,23,10,28,17.60
2007,07,23,10,29,17.60
2007,07,23,10,30,17.60
2007,07,23,10,31,17.60
2007,07,23,10,32,17.60
2007,07,23,10,33,17.70
2007,07,23,10,34,17.70
2007,07,23,10,35,17.70
2007,07,23,10,36,17.70
2007,07,23,10,37,17.60
2007,07,23,10,38,17.60
2007,07,23,10,39,17.70
2007,07,23,10,40,17.70
2007,07,23,10,41,17.70
2007,07,23,10,42,17.80
2007,07,23,10,43,17.80
2007,07,23,10,44,17.90
2007,07,23,10,45,17.90
2007,07,23,10,46,17.90
2007,07,23,10,47,17.90
2007,07,23,10,48,17.90
2007,07,23,10,49,17.90
2007,07,23,10,50,17.90
2007,07,23,10,51,17.90
2007,07,23,10,52,17.90
2007,07,23,10,53,18.00
2007,07,23,10,54,18.10
2007,07,23,10,55,18.20
2007,07,23,10,56,18.30
2007,07,23,10,57,18.40
2007,07,23,10,58,18.50
2007,07,23,10,59,18.50
2007,07,23,11,00,18.50
2007,07,23,11,01,18.50
2007,07,23,11,02,18.50
2007,07,23,11,03,18.40
2007,07,23,11,04,18.40
2007,07,23,11,05,18.40
2007,07,23,11,06,18.30
2007,07,23,11,07,18.30
2007,07,23,11,08,18.40
2007,07,23,11,09,18.40
2007,07,23,11,10,18.50
2007,07,23,11,11,18.50
2007,07,23,11,12,18.50
2007,07,23,11,13,18.50
2007,07,23,11,14,18.50
2007,07,23,11,15,18.50
2007,07,23,11,16,18.50
2007,07,23,11,17,18.50
2007,07,23,11,18,18.60
2007,07,23,11,19,18.60
2007,07,23,11,20,18.50
2007,07,23,11,21,18.50
2007,07,23,11,22,18.40
2007,07,23,11,23,18.40
2007,07,23,11,24,18.50
2007,07,23,11,25,18.50
2007,07,23,11,26,18.60
2007,07,23,11,27,18.60
2007,07,23,11,28,18.70
2007,07,23,11,29,18.90
2007,07,23,11,30,19.00
2007,07,23,11,31,19.10
2007,07,23,11,32,19.10
2007,07,23,11,33,19.10
2007,07,23,11,34,19.20
2007,07,23,11,35,19.30
2007,07,23,11,36,19.30
2007,07,23,11,37,19.30
2007,07,23,11,38,19.30
2007,07,23,11,39,19.30
2007,07,23,11,40,19.30
2007,07,23,11,41,19.20
2007,07,23,11,42,19.20
2007,07,23,11,43,19.20
2007,07,23,11,44,19.20
2007,07,23,11,45,19.10
2007,07,23,11,46,19.10
2007,07,23,11,47,19.00
2007,07,23,11,48,18.90
2007,07,23,11,49,18.90
2007,07,23,11,50,18.90
2007,07,23,11,51,18.80
2007,07,23,11,52,18.70
2007,07,23,11,53,18.60
2007,07,23,11,54,18.60
2007,07,23,11,55,18.60
2007,07,23,11,56,18.60
2007,07,23,11,57,18.60
2007,07,23,11,58,18.70
2007,07,23,11,59,18.70
2007,07,23,12,00,18.90
2007,07,23,12,01,19.00
2007,07,23,12,02,19.10
2007,07,23,12,03,19.20
2007,07,23,12,04,19.20
2007,07,23,12,05,19.10
2007,07,23,12,06,19.10
2007,07,23,12,07,19.10
2007,07,23,12,08,19.10
2007,07,23,12,09,19.10
2007,07,23,12,10,19.30
2007,07,23,12,11,19.40
2007,07,23,12,12,19.50
2007,07,23,12,13,19.60
2007,07,23,12,14,19.60
2007,07,23,12,15,19.70
2007,07,23,12,16,19.80
2007,07,23,12,17,19.80
2007,07,23,12,18,19.90
2007,07,23,12,19,19.90
2007,07,23,12,20,19.90
2007,07,23,12,21,19.90
2007,07,23,12,22,19.90
2007,07,23,12,23,19.70
2007,07,23,12,24,19.30
2007,07,23,12,25,18.90
2007,07,23,12,26,18.60
2007,07,23,12,27,18.30
2007,07,23,12,28,18.10
2007,07,23,12,29,17.80
2007,07,23,12,30,17.50
2007,07,23,12,31,17.30
2007,07,23,12,32,17.20
2007,07,23,12,33,17.00
2007,07,23,12,34,17.00
2007,07,23,12,35,16.90
2007,07,23,12,36,16.90
2007,07,23,12,37,16.80
2007,07,23,12,38,16.80
2007,07,23,12,39,16.70
2007,07,23,12,40,16.70
2007,07,23,12,41,16.70
2007,07,23,12,42,16.70
2007,07,23,12,43,16.70
2007,07,23,12,44,16.80
2007,07,23,12,45,16.80
2007,07,23,12,46,16.80
2007,07,23,12,47,16.80
2007,07,23,12,48,16.80
2007,07,23,12,49,16.70
2007,07,23,12,50,16.70
2007,07,23,12,51,16.70
2007,07,23,12,52,16.70
2007,07,23,12,53,16.70
2007,07,23,12,54,16.70
2007,07,23,12,55,16.70
2007,07,23,12,56,16.70
2007,07,23,12,57,16.70
2007,07,23,12,58,16.70
2007,07,23,12,59,16.70
2007,07,23,13,00,16.70
2007,07,23,13,01,16.70
2007,07,23,13,02,16.70
2007,07,23,13,03,16.70
2007,07,23,13,04,16.80
2007,07,23,13,05,16.80
2007,07,23,13,06,16.90
2007,07,23,13,07,16.90
2007,07,23,13,08,17.00
2007,07,23,13,09,17.10
2007,07,23,13,10,17.20
2007,07,23,13,11,17.30
2007,07,23,13,12,17.30
2007,07,23,13,13,17.40
2007,07,23,13,14,17.50
2007,07,23,13,15,17.60
2007,07,23,13,16,17.70
2007,07,23,13,17,17.80
2007,07,23,13,18,17.80
2007,07,23,13,19,17.80
2007,07,23,13,20,17.80
2007,07,23,13,21,17.80
2007,07,23,13,22,17.80
2007,07,23,13,23,17.80
2007,07,23,13,24,17.70
2007,07,23,13,25,17.60
2007,07,23,13,26,17.50
2007,07,23,13,27,17.50
2007,07,23,13,28,17.50
2007,07,23,13,29,17.50
2007,07,23,13,30,17.40
2007,07,23,13,31,17.40
2007,07,23,13,32,17.40
2007,07,23,13,33,17.40
2007,07,23,13,34,17.40
2007,07,23,13,35,17.50
2007,07,23,13,36,17.50
2007,07,23,13,37,17.50
2007,07,23,13,38,17.50
2007,07,23,13,39,17.50
2007,07,23,13,40,17.60
2007,07,23,13,41,17.70
2007,07,23,13,42,17.70
2007,07,23,13,43,17.90
2007,07,23,13,44,18.10
2007,07,23,13,45,18.30
2007,07,23,13,46,18.30
2007,07,23,13,47,18.70
2007,07,23,13,48,18.90
2007,07,23,13,49,19.10
2007,07,23,13,50,19.20
2007,07,23,13,51,19.30
2007,07,23,13,52,19.40
2007,07,23,13,53,19.50
2007,07,23,13,54,19.60
2007,07,23,13,55,19.70
2007,07,23,13,56,19.80
2007,07,23,13,57,19.90
2007,07,23,13,58,19.90
2007,07,23,13,59,19.90
2007,07,23,14,00,19.90
2007,07,23,14,01,20.00
2007,07,23,14,02,20.10
2007,07,23,14,03,20.00
2007,07,23,14,04,19.90
2007,07,23,14,05,19.90
2007,07,23,14,06,19.90
2007,07,23,14,07,19.80
2007,07,23,14,08,19.80
2007,07,23,14,09,19.80
2007,07,23,14,10,19.80
2007,07,23,14,11,19.80
2007,07,23,14,12,19.80
2007,07,23,14,13,19.80
2007,07,23,14,14,19.80
2007,07,23,14,15,19.80
2007,07,23,14,16,19.80
2007,07,23,14,17,19.80
2007,07,23,14,18,19.70
2007,07,23,14,19,19.70
2007,07,23,14,20,19.70
2007,07,23,14,21,19.70
2007,07,23,14,22,19.70
2007,07,23,14,23,19.80
2007,07,23,14,24,19.80
2007,07,23,14,25,19.70
2007,07,23,14,26,19.70
2007,07,23,14,27,19.70
2007,07,23,14,28,19.70
2007,07,23,14,29,19.70
2007,07,23,14,30,19.70
2007,07,23,14,31,19.70
2007,07,23,14,32,19.70
2007,07,23,14,33,19.60
2007,07,23,14,34,19.70
2007,07,23,14,35,19.70
2007,07,23,14,36,19.60
2007,07,23,14,37,19.60
2007,07,23,14,38,19.60
2007,07,23,14,39,19.60
2007,07,23,14,40,19.60
2007,07,23,14,41,19.50
2007,07,23,14,42,19.60
2007,07,23,14,43,19.60
2007,07,23,14,44,19.60
2007,07,23,14,45,19.60
2007,07,23,14,46,19.50
2007,07,23,14,47,19.50
2007,07,23,14,48,19.50
2007,07,23,14,49,19.50
2007,07,23,14,50,19.60
2007,07,23,14,51,19.60
2007,07,23,14,52,19.60
2007,07,23,14,53,19.60
2007,07,23,14,54,19.60
2007,07,23,14,55,19.60
2007,07,23,14,56,19.70
2007,07,23,14,57,19.70
2007,07,23,14,58,19.60
2007,07,23,14,59,19.60
2007,07,23,15,00,19.60
2007,07,23,15,01,19.50
2007,07,23,15,02,19.50
2007,07,23,15,03,19.50
2007,07,23,15,04,19.50
2007,07,23,15,05,19.50
2007,07,23,15,06,19.60
2007,07,23,15,07,19.60
2007,07,23,15,08,19.70
2007,07,23,15,09,19.60
2007,07,23,15,10,19.70
2007,07,23,15,11,19.70
2007,07,23,15,12,19.80
2007,07,23,15,13,19.90
2007,07,23,15,14,19.90
2007,07,23,15,15,20.00
2007,07,23,15,16,20.10
2007,07,23,15,17,20.20
2007,07,23,15,18,20.10
2007,07,23,15,19,20.10
2007,07,23,15,20,20.10
2007,07,23,15,21,20.10
2007,07,23,15,22,20.10
2007,07,23,15,23,20.00
2007,07,23,15,24,19.90
2007,07,23,15,25,19.70
2007,07,23,15,26,19.60
2007,07,23,15,27,19.60
2007,07,23,15,28,19.50
2007,07,23,15,29,19.40
2007,07,23,15,30,19.30
2007,07,23,15,31,19.20
2007,07,23,15,32,19.10
2007,07,23,15,33,19.10
2007,07,23,15,34,19.10
2007,07,23,15,35,19.10
2007,07,23,15,36,19.10
2007,07,23,15,37,19.10
2007,07,23,15,38,19.10
2007,07,23,15,39,19.10
2007,07,23,15,40,19.10
2007,07,23,15,41,19.10
2007,07,23,15,42,19.10
2007,07,23,15,43,19.10
2007,07,23,15,44,19.20
2007,07,23,15,45,19.30
2007,07,23,15,46,19.40
2007,07,23,15,47,19.40
2007,07,23,15,48,19.50
2007,07,23,15,49,19.50
2007,07,23,15,50,19.40
2007,07,23,15,51,19.40
2007,07,23,15,52,19.40
2007,07,23,15,53,19.40
2007,07,23,15,54,19.50
2007,07,23,15,55,19.40
2007,07,23,15,56,19.40
2007,07,23,15,57,19.50
2007,07,23,15,58,19.40
2007,07,23,15,59,19.40
2007,07,23,16,00,19.40
2007,07,23,16,01,19.40
2007,07,23,16,02,19.30
2007,07,23,16,03,19.30
2007,07,23,16,04,19.30
2007,07,23,16,05,19.30
2007,07,23,16,06,19.30
2007,07,23,16,07,19.30
2007,07,23,16,08,19.30
2007,07,23,16,09,19.30
2007,07,23,16,10,19.30
2007,07,23,16,11,19.30
2007,07,23,16,12,19.40
2007,07,23,16,13,19.40
2007,07,23,16,14,19.40
2007,07,23,16,15,19.50
2007,07,23,16,16,19.50
2007,07,23,16,17,19.50
2007,07,23,16,18,19.50
2007,07,23,16,19,19.50
2007,07,23,16,20,19.50
2007,07,23,16,21,19.60
2007,07,23,16,22,19.60
2007,07,23,16,23,19.60
2007,07,23,16,24,19.70
2007,07,23,16,25,19.80
2007,07,23,16,26,19.90
2007,07,23,16,27,19.90
2007,07,23,16,28,19.90
2007,07,23,16,29,19.90
2007,07,23,16,30,20.00
2007,07,23,16,31,20.10
2007,07,23,16,32,20.20
2007,07,23,16,33,20.20
2007,07,23,16,34,20.10
2007,07,23,16,35,20.10
2007,07,23,16,36,20.10
2007,07,23,16,37,20.20
2007,07,23,16,38,20.20
2007,07,23,16,39,20.20
2007,07,23,16,40,20.10
2007,07,23,16,41,20.20
2007,07,23,16,42,20.20
2007,07,23,16,43,20.20
2007,07,23,16,44,20.20
2007,07,23,16,45,20.20
2007,07,23,16,46,20.20
2007,07,23,16,47,20.20
2007,07,23,16,48,20.20
2007,07,23,16,49,20.20
2007,07,23,16,50,20.20
2007,07,23,16,51,20.20
2007,07,23,16,52,20.10
2007,07,23,16,53,20.00
2007,07,23,16,54,19.90
2007,07,23,16,55,19.90
2007,07,23,16,56,19.90
2007,07,23,16,57,19.90
2007,07,23,16,58,19.90
2007,07,23,16,59,19.80
2007,07,23,17,00,19.80
2007,07,23,17,01,19.80
2007,07,23,17,02,19.90
2007,07,23,17,03,19.90
2007,07,23,17,04,19.90
2007,07,23,17,05,19.90
2007,07,23,17,06,19.90
2007,07,23,17,07,19.90
2007,07,23,17,08,19.90
2007,07,23,17,09,19.90
2007,07,23,17,10,19.80
2007,07,23,17,11,19.80
2007,07,23,17,12,19.80
2007,07,23,17,13,19.80
2007,07,23,17,14,19.80
2007,07,23,17,15,19.80
2007,07,23,17,16,19.90
2007,07,23,17,17,19.90
2007,07,23,17,18,19.90
2007,07,23,17,19,19.90